GW4073 Weather Reports


Display with metric or nautical units.
time (UTC)temp
F
wind
direction
speed
MPH
gust
MPH
rain 1hr
in
rain 24hr
in
rain mn
in
humidity
%
barometer
mb
20260504231259 64 199 4.0 6.0 0.00 0.02 0.02 31 1006.1
20260504230755 65 167 5.0 7.0 0.00 0.02 0.02 30 1005.7
20260504230254 64 247 4.0 7.0 0.00 0.02 0.02 31 1005.8
20260504225752 65 265 1.0 6.0 0.00 0.02 0.02 32 1005.8
20260504225248 65 276 2.0 15.0 0.00 0.02 0.02 29 1006.1
20260504224745 64 269 0.0 3.0 0.00 0.02 0.02 33 1005.6
20260504224243 64 250 7.0 10.0 0.00 0.02 0.02 34 1006.2
20260504223739 64 284 4.0 10.0 0.00 0.02 0.02 34 1006.1
20260504223235 65 284 4.0 8.0 0.00 0.02 0.02 36 1006.2
20260504222732 66 284 2.0 4.0 0.00 0.02 0.02 38 1006.2
20260504222228 65 213 6.0 7.0 0.00 0.02 0.02 33 1006.4
20260504221726 65 297 4.0 11.0 0.00 0.02 0.02 34 1006.1
20260504221223 65 268 3.0 8.0 0.00 0.02 0.02 33 1006.3
20260504220720 65 149 6.0 15.0 0.00 0.02 0.02 33 1006.1
20260504220217 65 133 10.0 12.0 0.00 0.02 0.02 32 1006.4
20260504215714 66 215 4.0 6.0 0.00 0.02 0.02 33 1006.3
20260504215211 66 282 3.0 8.0 0.00 0.02 0.02 34 1006.7
20260504214706 65 267 3.0 10.0 0.00 0.02 0.02 35 1006.5
20260504214203 66 231 2.0 9.0 0.00 0.02 0.02 36 1006.7
20260504213700 65 215 3.0 12.0 0.00 0.02 0.02 33 1006.7
20260504213156 67 250 5.0 11.0 0.00 0.02 0.02 33 1006.9
20260504212653 67 273 2.0 8.0 0.00 0.02 0.02 34 1006.9
20260504212150 67 250 2.0 5.0 0.00 0.02 0.02 32 1006.9
20260504211647 67 279 3.0 6.0 0.00 0.02 0.02 33 1006.9
20260504211143 68 241 4.0 10.0 0.00 0.02 0.02 31 1007.1
20260504210641 67 286 2.0 6.0 0.00 0.02 0.02 32 1007.2
20260504210137 67 253 5.0 12.0 0.00 0.02 0.02 32 1007.2
20260504205635 67 238 6.0 11.0 0.00 0.02 0.02 33 1007.0
20260504205132 67 290 3.0 9.0 0.00 0.02 0.02 34 1007.2
20260504204631 68 210 4.0 8.0 0.00 0.02 0.02 31 1007.2
20260504204129 65 126 3.0 9.0 0.00 0.02 0.02 32 1007.0
20260504203628 67 192 3.0 10.0 0.00 0.02 0.02 35 1007.7
20260504203125 68 226 2.0 6.0 0.00 0.02 0.02 38 1007.2
20260504202625 67 213 4.0 7.0 0.00 0.02 0.02 34 1007.2
20260504202122 65 150 8.0 12.0 0.00 0.02 0.02 32 1007.1
20260504201619 67 222 8.0 9.0 0.00 0.02 0.02 32 1007.4
20260504201117 67 359 2.0 5.0 0.00 0.02 0.02 34 1007.4
20260504200614 68 195 2.0 7.0 0.00 0.02 0.02 32 1007.5
20260504200110 67 261 3.0 5.0 0.00 0.02 0.02 40 1007.2
20260504195606 66 277 4.0 11.0 0.00 0.02 0.02 34 1007.5
20260504195102 66 283 4.0 11.0 0.00 0.02 0.02 38 1007.5
20260504194600 67 235 3.0 6.0 0.00 0.02 0.02 34 1007.7
20260504194055 66 263 1.0 12.0 0.00 0.02 0.02 38 1007.7
20260504193552 67 244 2.0 7.0 0.00 0.02 0.02 42 1007.7
20260504193050 65 31 0.0 4.0 0.00 0.02 0.02 34 1007.7
20260504192548 65 88 4.0 12.0 0.00 0.02 0.02 36 1007.7
20260504192046 66 182 4.0 6.0 0.00 0.02 0.02 36 1007.8
20260504191544 65 216 6.0 8.0 0.00 0.02 0.02 37 1007.8
20260504191039 66 259 2.0 5.0 0.00 0.02 0.02 41 1008.1
20260504190536 65 167 3.0 5.0 0.00 0.02 0.02 35 1008.1
20260504190032 65 289 4.0 9.0 0.00 0.02 0.02 42 1007.8
20260504185530 64 296 3.0 6.0 0.00 0.02 0.02 39 1008.1
20260504185026 65 247 4.0 11.0 0.00 0.02 0.02 38 1008.1
20260504184521 64 295 4.0 10.0 0.00 0.02 0.02 41 1008.1
20260504184017 64 230 4.0 5.0 0.00 0.02 0.02 43 1008.2
20260504183514 65 278 2.0 6.0 0.00 0.02 0.02 44 1008.4
20260504183013 65 250 3.0 4.0 0.00 0.02 0.02 44 1008.1
20260504182509 65 324 2.0 6.0 0.00 0.02 0.02 45 1008.2
20260504182006 63 305 2.0 3.0 0.00 0.02 0.02 47 1008.5
20260504181503 63 253 6.0 6.0 0.00 0.02 0.02 46 1008.4
20260504181002 62 263 2.0 6.0 0.00 0.02 0.02 48 1008.7
20260504180500 64 317 1.0 2.0 0.00 0.02 0.02 45 1008.4
20260504175958 63 286 3.0 7.0 0.00 0.02 0.02 47 1008.4
20260504175455 63 151 3.0 11.0 0.00 0.02 0.02 45 1008.5
20260504174952 64 118 3.0 4.0 0.00 0.02 0.02 44 1008.9
20260504174450 64 139 4.0 5.0 0.00 0.02 0.02 44 1008.7
20260504173947 62 298 2.0 3.0 0.00 0.02 0.02 48 1008.5
20260504173443 62 263 2.0 4.0 0.00 0.02 0.02 51 1008.8
20260504172941 62 260 2.0 5.0 0.00 0.02 0.02 51 1008.7
20260504172437 62 288 2.0 3.0 0.00 0.02 0.02 50 1008.8
20260504171934 62 295 1.0 3.0 0.00 0.02 0.02 50 1008.7
20260504171431 62 265 2.0 7.0 0.00 0.02 0.02 51 1008.7
20260504170928 62 237 2.0 3.0 0.00 0.02 0.02 55 1008.8
20260504170424 62 312 3.0 4.0 0.00 0.02 0.02 55 1008.7
20260504160343 57 108 5.0 7.0 0.00 0.02 0.02 66 1008.3
20260504150808 55 51 3.0 9.0 0.00 0.02 0.02 67 1008.5
20260504150304 54 47 8.0 12.0 0.00 0.02 0.02 67 1008.9
20260504141234 50 46 5.0 8.0 0.00 0.02 0.02 74 1008.9
20260504140731 50 32 4.0 6.0 0.00 0.02 0.02 75 1009.0
20260504140226 50 0 4.0 8.0 0.00 0.02 0.02 74 1008.8
20260504130655 49 56 7.0 13.0 0.00 0.02 0.02 76 1008.3
20260504130151 49 31 6.0 7.0 0.00 0.02 0.02 77 1008.3
20260504120115 49 118 0.0 3.0 0.00 0.02 0.02 78 1008.2
20260504110543 49 36 4.0 8.0 0.02 0.01 0.01 77 1008.2
20260504100459 51 69 5.0 10.0 0.00 0.00 0.00 71 1007.9
20260504081852 50 329 2.0 2.0 0.02 0.00 0.00 79 1009.6
20260504081349 51 278 0.0 6.0 0.00 0.00 0.00 75 1009.8
20260504080844 51 262 4.0 8.0 0.00 0.00 0.00 73 1009.6
20260504080342 52 200 4.0 9.0 0.00 0.00 0.00 66 1008.7
20260504070310 52 75 4.0 11.0 0.00 0.00 0.00 67 1008.7
20260504060230 52 52 5.0 13.0 0.00 0.00 0.00 70 1008.9
20260504050657 52 67 7.0 14.0 0.00 0.26 0.26 73 1009.4
20260504050154 52 60 8.0 12.0 0.00 0.26 0.26 73 1009.4
20260504045652 52 65 7.0 14.0 0.00 0.26 0.26 74 1009.2
20260504045151 52 62 12.0 13.0 0.00 0.26 0.26 73 1009.2
20260504044649 52 57 8.0 12.0 0.00 0.26 0.26 73 1009.2
20260504044146 52 54 9.0 13.0 0.00 0.26 0.26 73 1009.4
20260504043643 52 70 9.0 12.0 0.00 0.26 0.26 73 1009.2
20260504043140 52 66 7.0 14.0 0.00 0.26 0.26 74 1009.4
20260504042638 51 74 4.0 12.0 0.00 0.26 0.26 76 1009.4
20260504042134 51 83 6.0 11.0 0.00 0.26 0.26 75 1009.1
20260504041630 51 57 7.0 11.0 0.00 0.26 0.26 76 1009.5
20260504041126 51 57 9.0 13.0 0.00 0.26 0.26 76 1009.1
20260504040624 51 59 7.0 15.0 0.00 0.26 0.26 77 1009.2
20260504040120 52 61 5.0 11.0 0.00 0.26 0.26 75 1009.4
20260504035617 52 80 6.0 13.0 0.00 0.26 0.26 75 1009.4
20260504035114 51 53 5.0 9.0 0.00 0.26 0.26 76 1009.4
20260504034612 52 52 5.0 17.0 0.00 0.26 0.26 75 1009.6
20260504034108 51 49 7.0 8.0 0.00 0.26 0.26 77 1009.4
20260504033606 51 49 11.0 14.0 0.00 0.26 0.26 76 1009.4
20260504033103 51 31 5.0 14.0 0.00 0.26 0.26 78 1009.2
20260504032600 51 66 12.0 19.0 0.00 0.26 0.26 78 1009.5
20260504032057 51 65 5.0 13.0 0.00 0.26 0.26 80 1009.5
20260504031554 51 35 6.0 9.0 0.00 0.26 0.26 77 1009.6
20260504031050 52 27 3.0 12.0 0.00 0.26 0.26 75 1009.6
20260504030547 52 102 6.0 11.0 0.00 0.26 0.26 75 1009.7
20260504030043 52 34 5.0 18.0 0.00 0.26 0.26 75 1009.6
20260504025541 51 50 13.0 17.0 0.00 0.26 0.26 78 1009.9
20260504025037 51 67 5.0 9.0 0.00 0.26 0.26 82 1009.9
20260504024535 50 57 6.0 7.0 0.00 0.26 0.26 79 1010.3
20260504024031 50 67 4.0 5.0 0.00 0.26 0.26 84 1009.9
20260504023528 50 355 0.0 5.0 0.00 0.26 0.26 82 1010.4
20260504023024 51 2 0.0 10.0 0.00 0.26 0.26 77 1009.9
20260504022520 51 77 5.0 11.0 0.00 0.26 0.26 78 1009.9
20260504022016 51 35 4.0 10.0 0.00 0.26 0.26 79 1010.1
20260504021514 51 96 8.0 11.0 0.00 0.26 0.26 78 1010.1
20260504021011 51 82 4.0 10.0 0.00 0.26 0.26 79 1009.7
20260504020508 50 42 6.0 10.0 0.00 0.26 0.26 81 1009.8
20260504020004 51 52 6.0 21.0 0.00 0.26 0.26 80 1009.6
20260504015500 50 75 8.0 10.0 0.00 0.26 0.26 84 1009.6
20260504014956 50 53 10.0 12.0 0.00 0.26 0.26 84 1009.7
20260504014452 50 45 8.0 11.0 0.00 0.26 0.26 85 1009.7
20260504013950 51 57 5.0 14.0 0.00 0.26 0.26 84 1009.9
20260504013448 51 38 7.0 18.0 0.00 0.26 0.26 79 1010.2
20260504012944 51 67 10.0 19.0 0.00 0.26 0.26 81 1010.3
20260504012442 50 43 3.0 12.0 0.00 0.26 0.26 85 1010.1
20260504011940 51 23 3.0 12.0 0.02 0.26 0.26 87 1010.4
20260504011436 51 43 9.0 15.0 0.17 0.26 0.26 89 1010.5
20260504010932 50 52 9.0 12.0 0.28 0.26 0.26 90 1010.8
20260504010428 50 317 4.0 4.0 0.26 0.23 0.23 92 1011.4
20260504005924 51 277 3.0 4.0 0.19 0.20 0.20 93 1011.6
20260504005421 51 98 0.0 1.0 0.21 0.19 0.19 92 1011.5
20260504004919 51 3 0.0 1.0 0.24 0.17 0.17 92 1011.7
20260504004416 52 230 0.0 2.0 0.21 0.15 0.15 91 1011.4
20260504003913 51 34 2.0 2.0 0.12 0.13 0.13 88 1011.6
20260504003409 52 291 0.0 2.0 0.02 0.11 0.11 87 1011.6
20260504002906 52 308 0.0 2.0 0.12 0.11 0.11 84 1011.4
20260504002403 53 118 3.0 3.0 0.14 0.10 0.10 81 1011.1
20260504001900 54 283 5.0 7.0 0.19 0.09 0.09 73 1011.0
20260504001358 56 292 5.0 8.0 0.14 0.07 0.07 67 1010.5
20260504000854 58 291 4.0 6.0 0.05 0.06 0.06 63 1009.8
20260504000353 63 117 1.0 7.0 0.00 0.05 0.05 44 1009.0
20260503235849 65 279 4.0 5.0 0.00 0.05 0.05 38 1008.8
20260503235347 66 296 2.0 3.0 0.00 0.05 0.05 33 1008.3
20260503234844 66 60 3.0 3.0 0.00 0.05 0.05 31 1008.1
20260503234341 67 305 2.0 3.0 0.00 0.05 0.05 31 1008.1
20260503233839 66 310 2.0 3.0 0.00 0.05 0.05 31 1008.2
20260503233335 66 308 2.0 5.0 0.00 0.05 0.05 31 1007.9
20260503232831 66 296 4.0 9.0 0.00 0.05 0.05 31 1007.9
20260503232329 66 290 7.0 8.0 0.00 0.05 0.05 31 1007.8
20260503231827 68 279 2.0 3.0 0.00 0.05 0.05 31 1008.1